This is the latest recevied weather packets stored in our database for station/object KJ6APE. If no packets are shown the sender has not sent any weather packets the latest 1 day(s).
| Time | Temp. | Humidity | Pressure | Rain* | Wind** | Luminosity | Snow |
|---|---|---|---|---|---|---|---|
| 1778026979 | 17.78° C | 67% | 1015.5 hPa | 0 mm | 1.79 m/s, 183° | 415 W/m² | - |
| 1778026674 | 17.78° C | 68% | 1015.5 hPa | 0 mm | 0.89 m/s, 102° | 328 W/m² | - |
| 1778026372 | 17.78° C | 68% | 1015.5 hPa | 0 mm | 0.89 m/s, 170° | 296 W/m² | - |
| 1778026069 | 17.78° C | 68% | 1015.3 hPa | 0 mm | 0.89 m/s, 169° | 262 W/m² | - |
| 1778025766 | 17.78° C | 67% | 1015.4 hPa | 0 mm | 1.34 m/s, 183° | 238 W/m² | - |
| 1778025463 | 17.78° C | 67% | 1015.5 hPa | 0 mm | 1.34 m/s, 49° | 186 W/m² | - |
| 1778025161 | 17.78° C | 67% | 1015.4 hPa | 0 mm | 1.34 m/s, 149° | 164 W/m² | - |
| 1778024857 | 17.78° C | 67% | 1015.4 hPa | 0 mm | 0.45 m/s, 144° | 234 W/m² | - |
| 1778024555 | 17.78° C | 66% | 1015.3 hPa | 0 mm | 2.24 m/s, 169° | 254 W/m² | - |
| 1778024251 | 17.78° C | 66% | 1015.5 hPa | 0 mm | 1.34 m/s, 141° | 236 W/m² | - |
| 1778023950 | 17.78° C | 66% | 1015.4 hPa | 0 mm | 1.79 m/s, 190° | 266 W/m² | - |
| 1778023646 | 17.78° C | 67% | 1015.5 hPa | 0 mm | 0.45 m/s, 104° | 220 W/m² | - |
| 1778023344 | 17.78° C | 67% | 1015.5 hPa | 0 mm | 0.89 m/s, 182° | 202 W/m² | - |
| 1778023040 | 17.78° C | 67% | 1015.5 hPa | 0 mm | 0 m/s | 219 W/m² | - |
| 1778022739 | 17.22° C | 67% | 1015.4 hPa | 0 mm | 0 m/s | 183 W/m² | - |
| 1778022437 | 17.22° C | 67% | 1015.7 hPa | 0 mm | 0 m/s | 156 W/m² | - |
| 1778022133 | 17.22° C | 68% | 1015.6 hPa | 0 mm | 0.89 m/s, 112° | 180 W/m² | - |
| 1778021830 | 17.22° C | 67% | 1015.6 hPa | 0 mm | 1.34 m/s, 144° | 196 W/m² | - |
| 1778021527 | 17.22° C | 68% | 1015.5 hPa | 0 mm | 0.89 m/s, 153° | 189 W/m² | - |
| 1778021222 | 17.78° C | 67% | 1015.6 hPa | 0 mm | 0 m/s | 194 W/m² | - |
| 1778020920 | 17.78° C | 67% | 1015.7 hPa | 0 mm | 0 m/s | 185 W/m² | - |
| 1778020618 | 17.78° C | 67% | 1015.4 hPa | 0 mm | 0 m/s | 182 W/m² | - |
| 1778020313 | 17.78° C | 67% | 1015.5 hPa | 0 mm | 1.34 m/s, 131° | 205 W/m² | - |
| 1778020009 | 17.78° C | 67% | 1015.6 hPa | 0 mm | 0.45 m/s, 83° | 207 W/m² | - |
| 1778019706 | 17.78° C | 68% | 1015.7 hPa | 0 mm | 0 m/s | 238 W/m² | - |
* Rain latest hour (hover to see other rain measurements)
** Current wind speed in m/s (hover to see current wind gust speed)